Time,TemperatureF,DewpointF,PressureIn,WindDirection,WindDirectionDegrees,WindSpeedMPH,WindSpeedGustMPH,Humidity,HourlyPrecipIn,Conditions,Clouds,dailyrainin,SoftwareType,DateUTC
2013-02-01 00:04:00,42.2,40.6,30.21,NNW,328,2.3,2.3,94,0.00,CLR,,0.00,WeatherDisplay:10.37,2013-02-01 08:04:00,
2013-02-01 00:09:00,42.7,41.1,30.21,NW,323,1.1,1.1,94,0.00,CLR,,0.00,WeatherDisplay:10.37,2013-02-01 08:09:00,
2013-02-01 00:14:00,43.4,41.8,30.21,NW,314,2.3,2.3,94,0.00,CLR,,0.00,WeatherDisplay:10.37,2013-02-01 08:14:00,
2013-02-01 00:19:00,43.4,41.8,30.21,NW,314,0.0,0.0,94,0.00,CLR,,0.00,WeatherDisplay:10.37,2013-02-01 08:19:00,
2013-02-01 00:25:00,42.9,41.3,30.21,NW,314,0.0,0.0,94,0.00,CLR,,0.00,WeatherDisplay:10.37,2013-02-01 08:25:00,
2013-02-01 00:30:00,42.4,40.5,30.21,NW,314,0.0,0.0,93,0.00,CLR,,0.00,WeatherDisplay:10.37,2013-02-01 08:30:00,
2013-02-01 00:35:00,42.0,40.1,30.21,NW,314,0.0,0.0,93,0.00,CLR,,0.00,WeatherDisplay:10.37,2013-02-01 08:35:00,
2013-02-01 00:41:00,41.5,39.6,30.20,NW,314,1.1,0.0,93,0.00,CLR,,0.00,WeatherDisplay:10.37,2013-02-01 08:41:00,
2013-02-01 00:46:00,41.4,39.8,30.21,NW,314,0.0,0.0,94,0.00,CLR,,0.00,WeatherDisplay:10.37,2013-02-01 08:46:00,
2013-02-01 00:51:00,41.2,39.6,30.21,NW,314,0.0,0.0,94,0.00,CLR,,0.00,WeatherDisplay:10.37,2013-02-01 08:51:00,
2013-02-01 00:56:00,41.1,39.5,30.21,NW,315,0.0,0.0,94,0.00,CLR,,0.00,WeatherDisplay:10.37,2013-02-01 08:56:00,
2013-02-01 01:01:00,41.2,39.6,30.21,NW,314,1.1,0.0,94,0.00,CLR,,0.00,WeatherDisplay:10.37,2013-02-01 09:01:00,
2013-02-01 01:06:00,41.1,39.5,30.21,NW,315,0.0,0.0,94,0.00,CLR,,0.00,WeatherDisplay:10.37,2013-02-01 09:06:00,
2013-02-01 01:11:00,40.9,39.3,30.21,ESE,108,1.1,1.1,94,0.00,CLR,,0.00,WeatherDisplay:10.37,2013-02-01 09:11:00,
2013-02-01 01:16:00,41.5,39.9,30.21,ENE,67,3.5,3.5,94,0.00,CLR,,0.00,WeatherDisplay:10.37,2013-02-01 09:16:00,
2013-02-01 01:21:00,41.8,40.2,30.21,ENE,67,2.3,2.3,94,0.00,CLR,,0.00,WeatherDisplay:10.37,2013-02-01 09:21:00,
2013-02-01 01:27:00,41.5,39.9,30.21,NE,52,2.3,2.3,94,0.00,CLR,,0.00,WeatherDisplay:10.37,2013-02-01 09:27:00,
2013-02-01 01:32:00,41.4,39.8,30.21,ENE,67,2.3,2.3,94,0.00,CLR,,0.00,WeatherDisplay:10.37,2013-02-01 09:32:00,
2013-02-01 01:37:00,41.6,40.0,30.21,ENE,67,2.3,2.3,94,0.00,CLR,,0.00,WeatherDisplay:10.37,2013-02-01 09:37:00,
2013-02-01 01:42:00,41.5,39.9,30.21,ENE,68,1.1,1.1,94,0.00,CLR,,0.00,WeatherDisplay:10.37,2013-02-01 09:42:00,
2013-02-01 01:47:00,41.5,39.9,30.21,ENE,71,2.3,2.3,94,0.00,CLR,,0.00,WeatherDisplay:10.37,2013-02-01 09:47:00,
2013-02-01 01:52:00,41.5,39.9,30.21,NE,56,1.1,1.1,94,0.00,CLR,,0.00,WeatherDisplay:10.37,2013-02-01 09:52:00,
2013-02-01 01:58:00,41.6,40.0,30.20,North,9,3.5,3.5,94,0.00,CLR,,0.00,WeatherDisplay:10.37,2013-02-01 09:58:00,
2013-02-01 02:03:00,41.6,40.0,30.20,NNE,16,2.3,2.3,94,0.00,CLR,,0.00,WeatherDisplay:10.37,2013-02-01 10:03:00,
2013-02-01 02:08:00,41.9,40.3,30.20,NNW,339,3.5,3.5,94,0.00,CLR,,0.00,WeatherDisplay:10.37,2013-02-01 10:08:00,
2013-02-01 02:14:00,42.4,40.8,30.20,NNW,329,3.0,3.0,94,0.00,CLR,,0.00,WeatherDisplay:10.37,2013-02-01 10:14:00,
2013-02-01 02:19:00,42.1,40.5,30.20,East,87,1.1,1.1,94,0.00,CLR,,0.00,WeatherDisplay:10.37,2013-02-01 10:19:00,
2013-02-01 02:24:00,42.1,40.5,30.20,ENE,60,1.1,1.1,94,0.00,CLR,,0.00,WeatherDisplay:10.37,2013-02-01 10:24:00,
2013-02-01 02:29:00,41.7,39.8,30.20,ENE,75,2.3,2.3,93,0.00,CLR,,0.00,WeatherDisplay:10.37,2013-02-01 10:29:00,
2013-02-01 02:34:00,41.5,39.6,30.20,NE,49,3.5,3.5,93,0.00,CLR,,0.00,WeatherDisplay:10.37,2013-02-01 10:34:00,
2013-02-01 02:39:00,41.7,39.8,30.20,NE,54,2.3,2.3,93,0.00,CLR,,0.00,WeatherDisplay:10.37,2013-02-01 10:39:00,
2013-02-01 02:44:00,41.6,39.7,30.20,NE,56,2.3,2.3,93,0.00,CLR,,0.00,WeatherDisplay:10.37,2013-02-01 10:44:00,
2013-02-01 02:49:00,42.0,40.1,30.21,ENE,60,3.5,3.5,93,0.00,CLR,,0.00,WeatherDisplay:10.37,2013-02-01 10:49:00,
2013-02-01 02:54:00,42.0,40.1,30.21,NE,51,3.5,3.5,93,0.00,CLR,,0.00,WeatherDisplay:10.37,2013-02-01 10:54:00,
2013-02-01 02:59:00,42.1,40.2,30.20,NE,52,3.5,3.5,93,0.00,CLR,,0.00,WeatherDisplay:10.37,2013-02-01 10:59:00,
2013-02-01 03:04:00,42.4,40.5,30.20,NE,49,3.5,3.5,93,0.00,CLR,,0.00,WeatherDisplay:10.37,2013-02-01 11:04:00,
2013-02-01 03:09:00,42.5,40.3,30.20,ENE,58,3.5,3.5,92,0.00,CLR,,0.00,WeatherDisplay:10.37,2013-02-01 11:09:00,
2013-02-01 03:14:00,42.5,40.3,30.20,NE,44,1.1,1.1,92,0.00,CLR,,0.00,WeatherDisplay:10.37,2013-02-01 11:14:00,
2013-02-01 03:19:00,42.1,39.9,30.20,ENE,68,1.1,0.0,92,0.00,CLR,,0.00,WeatherDisplay:10.37,2013-02-01 11:19:00,
2013-02-01 03:25:00,41.6,39.4,30.20,ENE,69,0.0,0.0,92,0.00,CLR,,0.00,WeatherDisplay:10.37,2013-02-01 11:25:00,
2013-02-01 03:30:00,41.1,39.0,30.20,ENE,68,0.0,0.0,92,0.00,CLR,,0.00,WeatherDisplay:10.37,2013-02-01 11:30:00,
2013-02-01 03:35:00,41.1,39.2,30.20,ENE,60,3.5,3.5,93,0.00,CLR,,0.00,WeatherDisplay:10.37,2013-02-01 11:35:00,
2013-02-01 03:41:00,41.3,39.4,30.20,ENE,70,2.3,2.3,93,0.00,CLR,,0.00,WeatherDisplay:10.37,2013-02-01 11:41:00,
2013-02-01 03:46:00,41.2,39.3,30.20,ENE,70,1.0,1.0,93,0.00,CLR,,0.00,WeatherDisplay:10.37,2013-02-01 11:46:00,
2013-02-01 03:51:00,41.1,39.2,30.20,ENE,69,0.0,0.0,93,0.00,CLR,,0.00,WeatherDisplay:10.37,2013-02-01 11:51:00,
2013-02-01 03:56:00,40.9,39.0,30.20,ENE,70,0.0,0.0,93,0.00,CLR,,0.00,WeatherDisplay:10.37,2013-02-01 11:56:00,
2013-02-01 04:01:00,40.7,38.8,30.20,ENE,70,0.0,0.0,93,0.00,CLR,,0.00,WeatherDisplay:10.37,2013-02-01 12:01:00,
2013-02-01 04:06:00,40.6,38.7,30.20,ENE,69,0.0,0.0,93,0.00,CLR,,0.00,WeatherDisplay:10.37,2013-02-01 12:06:00,
2013-02-01 04:11:00,40.3,38.4,30.20,ESE,105,0.0,0.0,93,0.00,CLR,,0.00,WeatherDisplay:10.37,2013-02-01 12:11:00,
2013-02-01 04:16:00,39.9,38.0,30.20,SW,221,1.1,1.1,93,0.00,CLR,,0.00,WeatherDisplay:10.37,2013-02-01 12:16:00,
2013-02-01 04:21:00,39.3,37.2,30.20,SW,221,1.0,1.0,92,0.00,CLR,,0.00,WeatherDisplay:10.37,2013-02-01 12:21:00,
2013-02-01 04:26:00,38.8,36.9,30.21,SW,224,0.0,0.1,93,0.00,CLR,,0.00,WeatherDisplay:10.37,2013-02-01 12:26:00,
2013-02-01 04:31:00,38.5,36.7,30.21,SW,217,0.0,0.0,93,0.00,CLR,,0.00,WeatherDisplay:10.37,2013-02-01 12:31:00,
2013-02-01 04:36:00,38.2,36.4,30.21,SW,220,1.1,1.1,93,0.00,CLR,,0.00,WeatherDisplay:10.37,2013-02-01 12:36:00,
2013-02-01 04:42:00,37.9,36.1,30.21,SW,225,0.0,0.0,93,0.00,CLR,,0.00,WeatherDisplay:10.37,2013-02-01 12:42:00,
2013-02-01 04:47:00,37.8,36.0,30.21,SW,226,2.3,2.3,93,0.00,CLR,,0.00,WeatherDisplay:10.37,2013-02-01 12:47:00,
2013-02-01 04:52:00,38.2,36.6,30.20,SW,226,1.1,1.1,94,0.00,CLR,,0.00,WeatherDisplay:10.37,2013-02-01 12:52:00,
2013-02-01 04:57:00,37.3,35.5,30.20,SE,131,0.0,0.0,93,0.00,CLR,,0.00,WeatherDisplay:10.37,2013-02-01 12:57:00,
2013-02-01 05:02:00,36.8,35.0,30.20,SE,131,0.0,0.0,93,0.00,CLR,,0.00,WeatherDisplay:10.37,2013-02-01 13:02:00,
2013-02-01 05:07:00,36.9,35.3,30.21,SE,131,0.0,0.0,94,0.00,CLR,,0.00,WeatherDisplay:10.37,2013-02-01 13:07:00,
2013-02-01 05:12:00,37.1,35.5,30.21,SE,131,0.0,0.0,94,0.00,CLR,,0.00,WeatherDisplay:10.37,2013-02-01 13:12:00,
2013-02-01 05:17:00,36.8,35.2,30.21,SE,131,0.0,0.0,94,0.00,CLR,,0.00,WeatherDisplay:10.37,2013-02-01 13:17:00,
2013-02-01 05:22:00,36.7,35.1,30.21,SE,131,1.1,0.0,94,0.00,CLR,,0.00,WeatherDisplay:10.37,2013-02-01 13:22:00,
2013-02-01 05:28:00,35.9,34.1,30.21,SE,131,0.0,0.0,93,0.00,CLR,,0.00,WeatherDisplay:10.37,2013-02-01 13:28:00,
2013-02-01 05:33:00,36.3,34.7,30.21,SE,131,1.0,1.0,94,0.00,CLR,,0.00,WeatherDisplay:10.37,2013-02-01 13:33:00,
2013-02-01 05:38:00,36.6,35.0,30.21,SE,131,1.1,0.0,94,0.00,CLR,,0.00,WeatherDisplay:10.37,2013-02-01 13:38:00,
2013-02-01 05:43:00,36.7,35.1,30.21,NNW,338,1.1,1.1,94,0.00,CLR,,0.00,WeatherDisplay:10.37,2013-02-01 13:43:00,
2013-02-01 05:49:00,37.1,35.8,30.21,NNW,338,1.1,0.0,95,0.00,CLR,,0.00,WeatherDisplay:10.37,2013-02-01 13:49:00,
2013-02-01 05:54:00,37.2,35.9,30.21,NNW,338,1.1,1.1,95,0.00,CLR,,0.00,WeatherDisplay:10.37,2013-02-01 13:54:00,
2013-02-01 05:59:00,37.1,35.8,30.21,NNW,337,1.1,1.1,95,0.00,CLR,,0.00,WeatherDisplay:10.37,2013-02-01 13:59:00,
2013-02-01 06:04:00,36.3,34.7,30.21,NNW,338,0.0,0.0,94,0.00,CLR,,0.00,WeatherDisplay:10.37,2013-02-01 14:04:00,
2013-02-01 06:09:00,36.5,34.9,30.21,NNW,338,0.0,0.0,94,0.00,CLR,,0.00,WeatherDisplay:10.37,2013-02-01 14:09:00,
2013-02-01 06:14:00,36.5,35.2,30.21,NNW,338,0.0,0.0,95,0.00,CLR,,0.00,WeatherDisplay:10.37,2013-02-01 14:14:00,
2013-02-01 06:19:00,36.3,35.0,30.21,NNW,338,0.0,0.0,95,0.00,CLR,,0.00,WeatherDisplay:10.37,2013-02-01 14:19:00,
2013-02-01 06:24:00,36.0,34.4,30.21,NNW,338,0.0,0.0,94,0.00,CLR,,0.00,WeatherDisplay:10.37,2013-02-01 14:24:00,
2013-02-01 06:29:00,36.0,34.7,30.21,NNW,338,0.0,0.0,95,0.00,CLR,,0.00,WeatherDisplay:10.37,2013-02-01 14:29:00,
2013-02-01 06:35:00,36.2,34.9,30.21,NNW,338,0.0,0.0,95,0.00,CLR,,0.00,WeatherDisplay:10.37,2013-02-01 14:35:00,
2013-02-01 06:40:00,36.3,35.0,30.21,NNW,338,0.0,0.0,95,0.00,CLR,,0.00,WeatherDisplay:10.37,2013-02-01 14:40:00,
2013-02-01 06:45:00,35.9,34.6,30.21,NE,43,2.3,0.0,95,0.00,CLR,,0.00,WeatherDisplay:10.37,2013-02-01 14:45:00,
2013-02-01 06:50:00,35.9,34.6,30.21,ENE,78,2.3,2.3,95,0.01,RA,,0.01,WeatherDisplay:10.37,2013-02-01 14:50:00,
2013-02-01 06:55:00,35.6,34.3,30.21,ENE,78,0.0,0.0,95,0.01,RA,,0.01,WeatherDisplay:10.37,2013-02-01 14:55:00,
2013-02-01 07:00:00,35.6,34.3,30.21,ENE,78,0.0,0.0,95,0.01,CLR,,0.01,WeatherDisplay:10.37,2013-02-01 15:00:00,
2013-02-01 07:06:00,36.2,34.9,30.22,ENE,78,0.0,0.0,95,0.01,CLR,,0.01,WeatherDisplay:10.37,2013-02-01 15:06:00,
2013-02-01 07:11:00,36.7,35.4,30.22,NE,56,0.0,0.0,95,0.01,CLR,,0.01,WeatherDisplay:10.37,2013-02-01 15:11:00,
2013-02-01 07:16:00,36.5,35.2,30.22,ENE,57,0.0,0.0,95,0.01,CLR,,0.01,WeatherDisplay:10.37,2013-02-01 15:16:00,
2013-02-01 07:22:00,36.5,35.2,30.22,NE,56,0.0,0.0,95,0.01,CLR,,0.01,WeatherDisplay:10.37,2013-02-01 15:22:00,
2013-02-01 07:27:00,36.0,34.7,30.22,NW,325,0.0,0.0,95,0.01,CLR,,0.01,WeatherDisplay:10.37,2013-02-01 15:27:00,
2013-02-01 07:32:00,36.0,34.7,30.22,NW,324,0.0,0.0,95,0.01,CLR,,0.01,WeatherDisplay:10.37,2013-02-01 15:32:00,
2013-02-01 07:37:00,36.3,35.0,30.22,NW,325,0.0,0.0,95,0.01,CLR,,0.01,WeatherDisplay:10.37,2013-02-01 15:37:00,
2013-02-01 07:42:00,36.6,35.3,30.22,East,83,0.0,0.0,95,0.01,CLR,,0.01,WeatherDisplay:10.37,2013-02-01 15:42:00,
2013-02-01 07:47:00,37.1,35.8,30.22,East,83,0.0,0.0,95,0.00,CLR,,0.01,WeatherDisplay:10.37,2013-02-01 15:47:00,
2013-02-01 07:52:00,36.9,35.6,30.22,East,84,0.0,0.0,95,0.00,CLR,,0.01,WeatherDisplay:10.37,2013-02-01 15:52:00,
2013-02-01 07:57:00,37.1,35.8,30.22,East,85,0.0,0.0,95,0.00,CLR,,0.01,WeatherDisplay:10.37,2013-02-01 15:57:00,
2013-02-01 08:02:00,37.3,36.0,30.22,East,85,0.0,0.0,95,0.00,CLR,,0.01,WeatherDisplay:10.37,2013-02-01 16:02:00,
2013-02-01 08:07:00,37.5,36.2,30.22,East,85,0.0,0.0,95,0.00,CLR,,0.01,WeatherDisplay:10.37,2013-02-01 16:07:00,
2013-02-01 08:12:00,37.7,36.4,30.22,East,84,0.0,0.0,95,0.00,CLR,,0.01,WeatherDisplay:10.37,2013-02-01 16:12:00,
2013-02-01 08:17:00,37.9,36.6,30.22,ENE,69,2.3,2.3,95,0.00,CLR,,0.01,WeatherDisplay:10.37,2013-02-01 16:17:00,
2013-02-01 08:22:00,38.3,37.0,30.22,ENE,68,3.5,3.5,95,0.00,CLR,,0.01,WeatherDisplay:10.37,2013-02-01 16:22:00,
2013-02-01 08:27:00,39.1,37.8,30.22,ENE,72,0.0,0.0,95,0.00,CLR,,0.01,WeatherDisplay:10.37,2013-02-01 16:27:00,
2013-02-01 08:32:00,39.9,38.6,30.23,NE,52,3.5,3.5,95,0.00,CLR,,0.01,WeatherDisplay:10.37,2013-02-01 16:32:00,
2013-02-01 08:37:00,40.5,39.2,30.23,SE,127,0.0,0.0,95,0.00,CLR,,0.01,WeatherDisplay:10.37,2013-02-01 16:37:00,
2013-02-01 08:43:00,41.2,39.9,30.23,East,92,1.1,1.1,95,0.00,CLR,,0.01,WeatherDisplay:10.37,2013-02-01 16:43:00,
2013-02-01 08:48:00,41.4,40.1,30.23,ESE,117,1.1,0.0,95,0.00,CLR,,0.01,WeatherDisplay:10.37,2013-02-01 16:48:00,
2013-02-01 08:53:00,41.5,40.2,30.23,South,177,0.0,0.0,95,0.00,CLR,,0.01,WeatherDisplay:10.37,2013-02-01 16:53:00,
2013-02-01 08:58:00,41.9,40.6,30.22,WSW,243,3.5,3.5,95,0.00,CLR,,0.01,WeatherDisplay:10.37,2013-02-01 16:58:00,
2013-02-01 09:03:00,42.5,40.9,30.22,WSW,239,1.1,1.1,94,0.00,CLR,,0.01,WeatherDisplay:10.37,2013-02-01 17:03:00,
2013-02-01 09:08:00,43.1,41.2,30.22,WSW,241,2.3,2.3,93,0.00,CLR,,0.01,WeatherDisplay:10.37,2013-02-01 17:08:00,
2013-02-01 09:14:00,43.6,41.4,30.22,WSW,238,0.0,0.0,92,0.00,CLR,,0.01,WeatherDisplay:10.37,2013-02-01 17:14:00,
2013-02-01 09:19:00,44.1,41.6,30.22,NE,56,3.5,3.5,91,0.00,CLR,,0.01,WeatherDisplay:10.37,2013-02-01 17:19:00,
2013-02-01 09:24:00,45.0,42.2,30.22,NNE,23,3.5,3.5,90,0.00,CLR,,0.01,WeatherDisplay:10.37,2013-02-01 17:24:00,
2013-02-01 09:29:00,45.6,42.5,30.21,North,8,3.5,3.5,89,0.00,CLR,,0.01,WeatherDisplay:10.37,2013-02-01 17:29:00,
2013-02-01 09:34:00,46.2,43.1,30.21,NNW,330,2.3,2.3,89,0.00,CLR,,0.01,WeatherDisplay:10.37,2013-02-01 17:34:00,
2013-02-01 09:39:00,46.9,43.5,30.21,North,354,2.3,2.3,88,0.00,CLR,,0.01,WeatherDisplay:10.37,2013-02-01 17:39:00,
2013-02-01 09:44:00,47.8,44.4,30.21,North,349,2.3,2.3,88,0.00,CLR,,0.01,WeatherDisplay:10.37,2013-02-01 17:44:00,
2013-02-01 09:49:00,48.7,45.0,30.21,NE,56,3.5,3.5,87,0.00,CLR,,0.01,WeatherDisplay:10.37,2013-02-01 17:49:00,
2013-02-01 09:55:00,50.1,46.1,30.21,ENE,71,5.0,5.0,86,0.00,CLR,,0.01,WeatherDisplay:10.37,2013-02-01 17:55:00,
2013-02-01 10:00:00,50.4,45.7,30.22,NE,34,4.6,4.6,84,0.00,CLR,,0.01,WeatherDisplay:10.37,2013-02-01 18:00:00,
2013-02-01 10:05:00,51.2,46.2,30.22,NE,51,4.6,4.6,83,0.00,CLR,,0.01,WeatherDisplay:10.37,2013-02-01 18:05:00,
2013-02-01 10:10:00,51.8,45.8,30.22,NE,41,3.5,3.5,80,0.00,CLR,,0.01,WeatherDisplay:10.37,2013-02-01 18:10:00,
2013-02-01 10:15:00,52.8,45.8,30.21,ENE,72,3.5,3.5,77,0.00,CLR,,0.01,WeatherDisplay:10.37,2013-02-01 18:15:00,
2013-02-01 10:20:00,53.7,46.0,30.21,ENE,67,3.5,3.5,75,0.00,CLR,,0.01,WeatherDisplay:10.37,2013-02-01 18:20:00,
2013-02-01 10:25:00,54.3,45.8,30.21,ENE,64,1.1,1.1,73,0.00,CLR,,0.01,WeatherDisplay:10.37,2013-02-01 18:25:00,
2013-02-01 10:30:00,55.1,46.2,30.21,NE,50,1.0,1.0,72,0.00,CLR,,0.01,WeatherDisplay:10.37,2013-02-01 18:30:00,
2013-02-01 10:35:00,55.8,46.5,30.21,NE,49,0.0,0.0,71,0.00,CLR,,0.01,WeatherDisplay:10.37,2013-02-01 18:35:00,
2013-02-01 10:40:00,56.5,46.4,30.21,NE,53,3.5,3.5,69,0.00,CLR,,0.01,WeatherDisplay:10.37,2013-02-01 18:40:00,
2013-02-01 10:46:00,57.1,46.6,30.21,ESE,104,0.0,0.0,68,0.00,CLR,,0.01,WeatherDisplay:10.37,2013-02-01 18:46:00,
2013-02-01 10:51:00,58.0,47.9,30.21,East,96,1.1,0.0,69,0.00,CLR,,0.01,WeatherDisplay:10.37,2013-02-01 18:51:00,
2013-02-01 10:56:00,59.5,48.1,30.21,SSE,165,0.0,0.0,66,0.00,CLR,,0.01,WeatherDisplay:10.37,2013-02-01 18:56:00,
2013-02-01 11:01:00,61.1,48.0,30.21,South,172,0.0,0.0,62,0.00,CLR,,0.01,WeatherDisplay:10.37,2013-02-01 19:01:00,
2013-02-01 11:06:00,62.4,47.4,30.21,SSW,203,1.1,1.1,58,0.00,CLR,,0.01,WeatherDisplay:10.37,2013-02-01 19:06:00,
2013-02-01 11:12:00,63.2,47.7,30.21,East,89,2.3,2.3,57,0.00,CLR,,0.01,WeatherDisplay:10.37,2013-02-01 19:12:00,
2013-02-01 11:17:00,63.4,47.4,30.21,SSW,211,2.3,2.3,56,0.00,CLR,,0.01,WeatherDisplay:10.37,2013-02-01 19:17:00,
2013-02-01 11:22:00,63.5,48.0,30.20,NE,53,3.5,3.5,57,0.00,CLR,,0.01,WeatherDisplay:10.37,2013-02-01 19:22:00,
2013-02-01 11:27:00,63.5,47.5,30.20,ESE,115,3.5,3.5,56,0.00,CLR,,0.01,WeatherDisplay:10.37,2013-02-01 19:27:00,
2013-02-01 11:32:00,64.0,47.0,30.20,East,79,3.5,3.5,54,0.00,CLR,,0.01,WeatherDisplay:10.37,2013-02-01 19:32:00,
2013-02-01 11:37:00,64.3,47.8,30.20,ENE,71,3.0,3.0,55,0.00,CLR,,0.01,WeatherDisplay:10.37,2013-02-01 19:37:00,
2013-02-01 11:42:00,64.5,47.0,30.20,NE,34,3.5,3.5,53,0.00,CLR,,0.01,WeatherDisplay:10.37,2013-02-01 19:42:00,
2013-02-01 11:47:00,65.1,46.0,30.20,NE,36,2.3,2.3,50,0.00,CLR,,0.01,WeatherDisplay:10.37,2013-02-01 19:47:00,
2013-02-01 11:52:00,65.4,47.8,30.19,North,9,1.1,1.1,53,0.00,CLR,,0.01,WeatherDisplay:10.37,2013-02-01 19:52:00,
2013-02-01 11:57:00,65.6,45.9,30.19,ENE,76,2.3,2.3,49,0.00,CLR,,0.01,WeatherDisplay:10.37,2013-02-01 19:57:00,
2013-02-01 12:03:00,66.7,44.1,30.19,SW,232,3.5,3.5,44,0.00,CLR,,0.01,WeatherDisplay:10.37,2013-02-01 20:03:00,
2013-02-01 12:08:00,68.0,44.7,30.18,SSW,200,1.0,1.0,43,0.00,CLR,,0.01,WeatherDisplay:10.37,2013-02-01 20:08:00,
2013-02-01 12:13:00,68.7,45.3,30.18,East,84,1.1,1.1,43,0.00,CLR,,0.01,WeatherDisplay:10.37,2013-02-01 20:13:00,
2013-02-01 12:18:00,68.6,45.2,30.17,ENE,62,5.0,5.0,43,0.00,CLR,,0.01,WeatherDisplay:10.37,2013-02-01 20:18:00,
2013-02-01 12:23:00,67.2,45.1,30.17,ENE,61,4.6,4.6,45,0.00,CLR,,0.01,WeatherDisplay:10.37,2013-02-01 20:23:00,
2013-02-01 12:28:00,66.8,44.8,30.17,NW,325,2.3,2.3,45,0.00,CLR,,0.01,WeatherDisplay:10.37,2013-02-01 20:28:00,
2013-02-01 12:33:00,66.8,44.2,30.17,SW,221,2.3,2.3,44,0.00,CLR,,0.01,WeatherDisplay:10.37,2013-02-01 20:33:00,
2013-02-01 12:39:00,67.6,44.9,30.16,NNW,346,2.0,2.0,44,0.00,CLR,,0.01,WeatherDisplay:10.37,2013-02-01 20:39:00,
2013-02-01 12:44:00,67.7,45.0,30.16,North,9,5.0,5.0,44,0.00,CLR,,0.01,WeatherDisplay:10.37,2013-02-01 20:44:00,
2013-02-01 12:50:00,67.4,43.5,30.15,NE,47,5.0,5.0,42,0.00,CLR,,0.01,WeatherDisplay:10.37,2013-02-01 20:50:00,
2013-02-01 12:55:00,67.3,45.2,30.15,North,9,3.5,3.5,45,0.00,CLR,,0.01,WeatherDisplay:10.37,2013-02-01 20:55:00,
2013-02-01 13:00:00,67.3,42.8,30.15,NW,319,2.3,2.3,41,0.00,CLR,,0.01,WeatherDisplay:10.37,2013-02-01 21:00:00,
2013-02-01 13:05:00,67.5,44.2,30.15,NNW,342,4.0,4.0,43,0.00,CLR,,0.01,WeatherDisplay:10.37,2013-02-01 21:05:00,
2013-02-01 13:10:00,67.3,42.8,30.15,North,1,2.3,2.3,41,0.00,CLR,,0.01,WeatherDisplay:10.37,2013-02-01 21:10:00,
2013-02-01 13:15:00,67.4,42.9,30.15,NNE,20,2.3,2.3,41,0.00,CLR,,0.01,WeatherDisplay:10.37,2013-02-01 21:15:00,
2013-02-01 13:20:00,67.4,44.1,30.15,NE,39,2.3,2.3,43,0.00,CLR,,0.01,WeatherDisplay:10.37,2013-02-01 21:20:00,
2013-02-01 13:25:00,67.5,43.6,30.15,East,84,2.3,2.3,42,0.00,CLR,,0.01,WeatherDisplay:10.37,2013-02-01 21:25:00,
2013-02-01 13:31:00,68.0,44.0,30.14,East,90,2.3,2.3,42,0.00,CLR,,0.01,WeatherDisplay:10.37,2013-02-01 21:31:00,
2013-02-01 13:36:00,68.4,43.1,30.14,North,357,2.3,0.0,40,0.00,CLR,,0.01,WeatherDisplay:10.37,2013-02-01 21:36:00,
2013-02-01 13:41:00,68.4,43.8,30.14,NE,39,3.5,3.5,41,0.00,CLR,,0.01,WeatherDisplay:10.37,2013-02-01 21:41:00,
2013-02-01 13:46:00,68.5,43.9,30.14,NNE,25,3.5,3.5,41,0.00,CLR,,0.01,WeatherDisplay:10.37,2013-02-01 21:46:00,
2013-02-01 13:51:00,68.8,43.5,30.14,South,180,3.5,3.5,40,0.00,CLR,,0.01,WeatherDisplay:10.37,2013-02-01 21:51:00,
2013-02-01 13:56:00,69.8,44.4,30.14,ESE,108,2.3,2.3,40,0.00,CLR,,0.01,WeatherDisplay:10.37,2013-02-01 21:56:00,
2013-02-01 14:01:00,69.7,43.6,30.13,NNE,25,4.6,4.6,39,0.00,CLR,,0.01,WeatherDisplay:10.37,2013-02-01 22:01:00,
2013-02-01 14:07:00,69.4,43.4,30.13,NNE,12,5.8,5.8,39,0.00,CLR,,0.01,WeatherDisplay:10.37,2013-02-01 22:07:00,
2013-02-01 14:12:00,69.6,42.9,30.13,NNW,332,2.3,2.3,38,0.00,CLR,,0.01,WeatherDisplay:10.37,2013-02-01 22:12:00,
2013-02-01 14:17:00,69.8,43.7,30.13,NW,312,3.5,3.5,39,0.00,CLR,,0.01,WeatherDisplay:10.37,2013-02-01 22:17:00,
2013-02-01 14:22:00,69.9,43.8,30.13,West,262,2.3,2.3,39,0.00,CLR,,0.01,WeatherDisplay:10.37,2013-02-01 22:22:00,
2013-02-01 14:27:00,71.0,43.4,30.13,NW,325,2.3,2.3,37,0.00,CLR,,0.01,WeatherDisplay:10.37,2013-02-01 22:27:00,
2013-02-01 14:32:00,70.6,43.7,30.13,NNE,25,1.1,1.1,38,0.00,CLR,,0.01,WeatherDisplay:10.37,2013-02-01 22:32:00,
2013-02-01 14:38:00,71.6,43.9,30.13,North,351,2.3,2.3,37,0.00,CLR,,0.01,WeatherDisplay:10.37,2013-02-01 22:38:00,
2013-02-01 14:43:00,71.7,43.3,30.13,NNW,329,1.1,1.1,36,0.00,CLR,,0.01,WeatherDisplay:10.37,2013-02-01 22:43:00,
2013-02-01 14:49:00,71.9,44.2,30.13,WSW,256,3.5,3.5,37,0.00,CLR,,0.01,WeatherDisplay:10.37,2013-02-01 22:49:00,
2013-02-01 14:54:00,72.8,44.3,30.13,WSW,246,2.3,2.3,36,0.00,CLR,,0.01,WeatherDisplay:10.37,2013-02-01 22:54:00,
2013-02-01 14:59:00,73.1,43.1,30.13,SW,219,3.5,3.5,34,0.00,CLR,,0.01,WeatherDisplay:10.37,2013-02-01 22:59:00,
2013-02-01 15:04:00,73.0,43.7,30.12,NW,309,4.6,4.6,35,0.00,CLR,,0.01,WeatherDisplay:10.37,2013-02-01 23:04:00,
2013-02-01 15:09:00,73.1,44.5,30.12,WSW,248,3.5,3.5,36,0.00,CLR,,0.01,WeatherDisplay:10.37,2013-02-01 23:09:00,
2013-02-01 15:14:00,72.8,43.5,30.12,NW,322,2.3,2.3,35,0.00,CLR,,0.01,WeatherDisplay:10.37,2013-02-01 23:14:00,
2013-02-01 15:19:00,72.0,43.6,30.12,WNW,301,1.1,1.1,36,0.00,CLR,,0.01,WeatherDisplay:10.37,2013-02-01 23:19:00,
2013-02-01 15:25:00,72.0,42.8,30.12,WNW,300,2.0,2.0,35,0.00,CLR,,0.01,WeatherDisplay:10.37,2013-02-01 23:25:00,
2013-02-01 15:30:00,71.4,43.0,30.11,NNW,342,2.3,2.3,36,0.00,CLR,,0.01,WeatherDisplay:10.37,2013-02-01 23:30:00,
2013-02-01 15:35:00,70.9,43.3,30.12,NW,308,3.5,3.5,37,0.00,CLR,,0.01,WeatherDisplay:10.37,2013-02-01 23:35:00,
2013-02-01 15:40:00,71.1,44.2,30.12,NW,319,2.3,2.3,38,0.00,CLR,,0.01,WeatherDisplay:10.37,2013-02-01 23:40:00,
2013-02-01 15:45:00,71.6,43.9,30.12,West,271,1.1,1.1,37,0.00,CLR,,0.01,WeatherDisplay:10.37,2013-02-01 23:45:00,
2013-02-01 15:50:00,72.2,44.5,30.12,West,271,2.3,2.3,37,0.00,CLR,,0.01,WeatherDisplay:10.37,2013-02-01 23:50:00,
2013-02-01 15:55:00,72.0,43.6,30.12,NW,308,2.3,2.3,36,0.00,CLR,,0.01,WeatherDisplay:10.37,2013-02-01 23:55:00,
2013-02-01 16:00:00,71.3,44.4,30.12,NNW,333,2.3,2.3,38,0.00,CLR,,0.01,WeatherDisplay:10.37,2013-02-02 00:00:00,
2013-02-01 16:05:00,71.4,44.5,30.12,SE,139,2.3,2.3,38,0.00,CLR,,0.01,WeatherDisplay:10.37,2013-02-02 00:05:00,
2013-02-01 16:10:00,72.5,44.7,30.12,SW,214,2.3,2.3,37,0.00,CLR,,0.01,WeatherDisplay:10.37,2013-02-02 00:10:00,
2013-02-01 16:15:00,72.9,43.6,30.12,West,270,4.0,4.0,35,0.00,CLR,,0.01,WeatherDisplay:10.37,2013-02-02 00:15:00,
2013-02-01 16:20:00,72.6,44.1,30.12,South,172,3.0,3.0,36,0.00,CLR,,0.01,WeatherDisplay:10.37,2013-02-02 00:20:00,
2013-02-01 16:25:00,72.6,44.1,30.12,SW,235,1.1,1.1,36,0.00,CLR,,0.01,WeatherDisplay:10.37,2013-02-02 00:25:00,
2013-02-01 16:31:00,72.4,44.6,30.12,West,277,1.1,1.1,37,0.00,CLR,,0.01,WeatherDisplay:10.37,2013-02-02 00:31:00,
2013-02-01 16:36:00,70.9,45.4,30.12,WNW,302,3.5,3.5,40,0.00,CLR,,0.01,WeatherDisplay:10.37,2013-02-02 00:36:00,
2013-02-01 16:41:00,69.7,45.6,30.12,WNW,299,1.1,1.1,42,0.00,CLR,,0.01,WeatherDisplay:10.37,2013-02-02 00:41:00,
2013-02-01 16:46:00,69.1,45.7,30.12,WSW,242,1.1,1.1,43,0.00,CLR,,0.01,WeatherDisplay:10.37,2013-02-02 00:46:00,
2013-02-01 16:51:00,68.6,45.8,30.12,WSW,238,2.3,2.3,44,0.00,CLR,,0.01,WeatherDisplay:10.37,2013-02-02 00:51:00,
2013-02-01 16:57:00,68.0,45.9,30.12,WSW,238,2.3,2.3,45,0.00,CLR,,0.01,WeatherDisplay:10.37,2013-02-02 00:57:00,
2013-02-01 17:02:00,67.1,45.6,30.12,SW,233,2.3,2.3,46,0.00,CLR,,0.01,WeatherDisplay:10.37,2013-02-02 01:02:00,
2013-02-01 17:07:00,66.2,45.9,30.12,WSW,253,0.0,0.0,48,0.00,CLR,,0.01,WeatherDisplay:10.37,2013-02-02 01:07:00,
2013-02-01 17:12:00,65.1,45.5,30.12,South,185,1.1,1.1,49,0.00,CLR,,0.01,WeatherDisplay:10.37,2013-02-02 01:12:00,
2013-02-01 17:17:00,64.1,45.6,30.12,WSW,242,2.3,2.3,51,0.00,CLR,,0.01,WeatherDisplay:10.37,2013-02-02 01:17:00,
2013-02-01 17:22:00,63.3,45.9,30.12,WSW,242,0.0,0.0,53,0.00,CLR,,0.01,WeatherDisplay:10.37,2013-02-02 01:22:00,
2013-02-01 17:27:00,62.8,45.4,30.13,SW,233,0.0,0.1,53,0.00,CLR,,0.01,WeatherDisplay:10.37,2013-02-02 01:27:00,
2013-02-01 17:32:00,62.2,45.8,30.13,WSW,239,2.3,2.3,55,0.00,CLR,,0.01,WeatherDisplay:10.37,2013-02-02 01:32:00,
2013-02-01 17:37:00,61.7,45.8,30.14,WSW,245,1.1,1.1,56,0.00,CLR,,0.01,WeatherDisplay:10.37,2013-02-02 01:37:00,
2013-02-01 17:42:00,61.2,45.8,30.14,ENE,69,2.3,2.3,57,0.00,CLR,,0.01,WeatherDisplay:10.37,2013-02-02 01:42:00,
2013-02-01 17:47:00,60.0,45.6,30.14,ENE,72,0.0,0.0,59,0.00,CLR,,0.01,WeatherDisplay:10.37,2013-02-02 01:47:00,
2013-02-01 17:52:00,59.3,45.4,30.14,ENE,72,0.0,0.0,60,0.00,CLR,,0.01,WeatherDisplay:10.37,2013-02-02 01:52:00,
2013-02-01 17:57:00,58.9,45.5,30.14,ENE,72,0.0,0.0,61,0.00,CLR,,0.01,WeatherDisplay:10.37,2013-02-02 01:57:00,
2013-02-01 18:02:00,58.7,45.7,30.15,ENE,72,0.0,0.0,62,0.00,CLR,,0.01,WeatherDisplay:10.37,2013-02-02 02:02:00,
2013-02-01 18:08:00,58.3,45.3,30.15,ENE,72,1.1,1.1,62,0.00,CLR,,0.01,WeatherDisplay:10.37,2013-02-02 02:08:00,
2013-02-01 18:13:00,58.1,45.6,30.15,WSW,240,1.1,1.1,63,0.00,CLR,,0.01,WeatherDisplay:10.37,2013-02-02 02:13:00,
2013-02-01 18:18:00,57.6,45.5,30.15,WSW,240,2.3,2.3,64,0.00,CLR,,0.01,WeatherDisplay:10.37,2013-02-02 02:18:00,
2013-02-01 18:24:00,57.1,45.4,30.16,WSW,240,1.1,0.0,65,0.00,CLR,,0.01,WeatherDisplay:10.37,2013-02-02 02:24:00,
2013-02-01 18:29:00,56.0,44.8,30.16,WSW,240,1.1,1.1,66,0.00,CLR,,0.01,WeatherDisplay:10.37,2013-02-02 02:29:00,
2013-02-01 18:34:00,54.8,44.8,30.16,WSW,240,0.0,0.0,69,0.00,CLR,,0.01,WeatherDisplay:10.37,2013-02-02 02:34:00,
2013-02-01 18:39:00,54.4,44.8,30.16,WSW,240,0.0,0.0,70,0.00,CLR,,0.01,WeatherDisplay:10.37,2013-02-02 02:39:00,
2013-02-01 18:45:00,54.0,44.8,30.17,WSW,240,0.0,0.0,71,0.00,CLR,,0.01,WeatherDisplay:10.37,2013-02-02 02:45:00,
2013-02-01 18:50:00,53.9,45.1,30.17,WSW,240,1.1,1.1,72,0.00,CLR,,0.01,WeatherDisplay:10.37,2013-02-02 02:50:00,
2013-02-01 18:55:00,53.9,45.1,30.17,WSW,240,1.1,1.1,72,0.00,CLR,,0.01,WeatherDisplay:10.37,2013-02-02 02:55:00,
2013-02-01 19:00:00,54.0,44.8,30.18,WSW,240,1.1,1.1,71,0.00,CLR,,0.01,WeatherDisplay:10.37,2013-02-02 03:00:00,
2013-02-01 19:05:00,54.3,45.1,30.18,SSE,153,1.1,1.1,71,0.00,CLR,,0.01,WeatherDisplay:10.37,2013-02-02 03:05:00,
2013-02-01 19:10:00,54.7,45.1,30.18,SSW,200,1.1,1.1,70,0.00,CLR,,0.01,WeatherDisplay:10.37,2013-02-02 03:10:00,
2013-02-01 19:16:00,54.5,45.3,30.19,WSW,239,1.1,1.1,71,0.00,CLR,,0.01,WeatherDisplay:10.37,2013-02-02 03:16:00,
2013-02-01 19:21:00,54.3,45.1,30.19,SW,231,2.3,2.3,71,0.00,CLR,,0.01,WeatherDisplay:10.37,2013-02-02 03:21:00,
2013-02-01 19:26:00,54.0,45.2,30.19,WSW,246,2.3,2.3,72,0.00,CLR,,0.01,WeatherDisplay:10.37,2013-02-02 03:26:00,
2013-02-01 19:31:00,53.9,45.4,30.19,WSW,240,2.3,2.3,73,0.00,CLR,,0.01,WeatherDisplay:10.37,2013-02-02 03:31:00,
2013-02-01 19:36:00,53.6,45.2,30.19,WSW,242,2.3,2.3,73,0.00,CLR,,0.01,WeatherDisplay:10.37,2013-02-02 03:36:00,
2013-02-01 19:41:00,53.5,45.1,30.19,SW,233,2.0,2.0,73,0.00,CLR,,0.01,WeatherDisplay:10.37,2013-02-02 03:41:00,
2013-02-01 19:47:00,53.6,45.2,30.19,SW,233,2.3,2.3,73,0.00,CLR,,0.01,WeatherDisplay:10.37,2013-02-02 03:47:00,
2013-02-01 19:52:00,53.3,44.9,30.19,SW,236,2.3,2.3,73,0.00,CLR,,0.01,WeatherDisplay:10.37,2013-02-02 03:52:00,
2013-02-01 19:57:00,52.8,44.7,30.19,SW,236,2.3,2.3,74,0.00,CLR,,0.01,WeatherDisplay:10.37,2013-02-02 03:57:00,
2013-02-01 20:02:00,52.4,44.4,30.19,WSW,238,0.0,0.0,74,0.00,CLR,,0.01,WeatherDisplay:10.37,2013-02-02 04:02:00,
2013-02-01 20:07:00,51.2,43.5,30.19,ENE,60,2.3,2.3,75,0.00,CLR,,0.01,WeatherDisplay:10.37,2013-02-02 04:07:00,
2013-02-01 20:13:00,50.0,43.1,30.19,ENE,60,1.1,1.1,77,0.00,CLR,,0.01,WeatherDisplay:10.37,2013-02-02 04:13:00,
2013-02-01 20:18:00,49.0,43.1,30.19,NNW,338,2.3,2.3,80,0.00,CLR,,0.01,WeatherDisplay:10.37,2013-02-02 04:18:00,
2013-02-01 20:23:00,48.9,43.3,30.19,NNW,330,2.3,2.3,81,0.00,CLR,,0.01,WeatherDisplay:10.37,2013-02-02 04:23:00,
2013-02-01 20:28:00,49.1,43.5,30.20,NW,326,2.0,2.0,81,0.00,CLR,,0.01,WeatherDisplay:10.37,2013-02-02 04:28:00,
2013-02-01 20:33:00,49.0,43.4,30.20,NW,326,1.1,1.1,81,0.00,CLR,,0.01,WeatherDisplay:10.37,2013-02-02 04:33:00,
2013-02-01 20:38:00,49.0,43.1,30.20,NW,325,2.3,2.3,80,0.00,CLR,,0.01,WeatherDisplay:10.37,2013-02-02 04:38:00,
2013-02-01 20:43:00,48.7,42.8,30.20,NW,326,1.1,1.1,80,0.00,CLR,,0.01,WeatherDisplay:10.37,2013-02-02 04:43:00,
2013-02-01 20:49:00,48.4,43.2,30.20,NNW,342,2.3,2.3,82,0.00,CLR,,0.01,WeatherDisplay:10.37,2013-02-02 04:49:00,
2013-02-01 20:54:00,48.6,43.0,30.20,NNW,333,2.3,2.3,81,0.00,CLR,,0.01,WeatherDisplay:10.37,2013-02-02 04:54:00,
2013-02-01 20:59:00,48.5,42.9,30.20,NNW,333,1.1,0.0,81,0.00,CLR,,0.01,WeatherDisplay:10.37,2013-02-02 04:59:00,
2013-02-01 21:00:00,48.4,42.8,30.20,NNW,333,1.1,0.0,81,0.00,CLR,,0.01,WeatherDisplay:10.37,2013-02-02 05:00:00,
2013-02-01 21:01:00,48.4,42.8,30.20,NNW,333,0.0,0.0,81,0.00,CLR,,0.01,WeatherDisplay:10.37,2013-02-02 05:01:00,
2013-02-01 21:02:00,48.3,42.7,30.20,NNW,333,0.0,0.0,81,0.00,CLR,,0.01,WeatherDisplay:10.37,2013-02-02 05:02:00,
2013-02-01 21:07:00,48.2,43.0,30.20,NNW,333,0.0,0.0,82,0.00,CLR,,0.01,WeatherDisplay:10.37,2013-02-02 05:07:00,
2013-02-01 21:12:00,47.9,42.7,30.20,NNW,333,0.0,0.0,82,0.00,CLR,,0.01,WeatherDisplay:10.37,2013-02-02 05:12:00,
2013-02-01 21:17:00,47.9,43.0,30.21,NNW,333,0.0,0.0,83,0.00,CLR,,0.01,WeatherDisplay:10.37,2013-02-02 05:17:00,
2013-02-01 21:22:00,47.9,43.0,30.21,NNW,333,0.0,0.0,83,0.00,CLR,,0.01,WeatherDisplay:10.37,2013-02-02 05:22:00,
2013-02-01 21:27:00,47.7,42.5,30.21,NNW,333,0.0,0.0,82,0.00,CLR,,0.01,WeatherDisplay:10.37,2013-02-02 05:27:00,
2013-02-01 21:32:00,47.9,42.7,30.21,NNW,333,0.0,0.0,82,0.00,CLR,,0.01,WeatherDisplay:10.37,2013-02-02 05:32:00,
2013-02-01 21:37:00,48.3,43.1,30.21,NNW,333,1.0,1.0,82,0.00,CLR,,0.01,WeatherDisplay:10.37,2013-02-02 05:37:00,
2013-02-01 21:42:00,48.4,42.8,30.21,ENE,70,2.3,2.3,81,0.00,CLR,,0.01,WeatherDisplay:10.37,2013-02-02 05:42:00,
2013-02-01 21:47:00,48.5,42.9,30.21,ENE,60,2.3,2.3,81,0.00,CLR,,0.01,WeatherDisplay:10.37,2013-02-02 05:47:00,
2013-02-01 21:52:00,48.3,42.4,30.21,ENE,58,0.0,0.0,80,0.00,CLR,,0.01,WeatherDisplay:10.37,2013-02-02 05:52:00,
2013-02-01 21:58:00,48.0,42.4,30.21,NW,322,0.0,0.0,81,0.00,CLR,,0.01,WeatherDisplay:10.37,2013-02-02 05:58:00,
2013-02-01 22:03:00,47.7,42.2,30.21,SW,214,0.0,0.0,81,0.00,CLR,,0.01,WeatherDisplay:10.37,2013-02-02 06:03:00,
2013-02-01 22:08:00,47.4,42.2,30.21,SW,214,1.1,1.1,82,0.00,CLR,,0.01,WeatherDisplay:10.37,2013-02-02 06:08:00,
2013-02-01 22:13:00,47.1,42.2,30.21,SW,214,1.1,0.0,83,0.00,CLR,,0.01,WeatherDisplay:10.37,2013-02-02 06:13:00,
2013-02-01 22:19:00,46.9,42.0,30.21,SW,214,0.0,0.0,83,0.00,CLR,,0.01,WeatherDisplay:10.37,2013-02-02 06:19:00,
2013-02-01 22:24:00,46.8,41.9,30.22,SE,146,0.0,0.0,83,0.00,CLR,,0.01,WeatherDisplay:10.37,2013-02-02 06:24:00,
2013-02-01 22:29:00,47.2,42.3,30.22,East,83,2.3,2.3,83,0.00,CLR,,0.01,WeatherDisplay:10.37,2013-02-02 06:29:00,
2013-02-01 22:34:00,47.6,42.4,30.22,East,84,1.1,1.1,82,0.00,CLR,,0.01,WeatherDisplay:10.37,2013-02-02 06:34:00,
2013-02-01 22:39:00,47.7,42.5,30.22,East,83,0.0,0.0,82,0.00,CLR,,0.01,WeatherDisplay:10.37,2013-02-02 06:39:00,
2013-02-01 22:44:00,47.2,41.7,30.22,East,83,0.0,0.0,81,0.00,CLR,,0.01,WeatherDisplay:10.37,2013-02-02 06:44:00,
2013-02-01 22:49:00,46.9,42.0,30.22,NW,323,1.1,1.1,83,0.00,CLR,,0.01,WeatherDisplay:10.37,2013-02-02 06:49:00,
2013-02-01 22:54:00,46.7,41.8,30.22,NW,323,0.0,0.0,83,0.00,CLR,,0.01,WeatherDisplay:10.37,2013-02-02 06:54:00,
2013-02-01 22:59:00,46.3,41.7,30.22,NW,323,0.0,0.0,84,0.00,CLR,,0.01,WeatherDisplay:10.37,2013-02-02 06:59:00,
2013-02-01 23:04:00,46.0,41.4,30.22,NW,323,0.0,0.0,84,0.00,CLR,,0.01,WeatherDisplay:10.37,2013-02-02 07:04:00,
2013-02-01 23:09:00,45.9,41.6,30.22,NW,323,0.0,0.0,85,0.00,CLR,,0.01,WeatherDisplay:10.37,2013-02-02 07:09:00,
2013-02-01 23:14:00,45.9,41.6,30.23,NW,323,0.0,0.0,85,0.00,CLR,,0.01,WeatherDisplay:10.37,2013-02-02 07:14:00,
2013-02-01 23:19:00,45.8,41.5,30.23,NW,323,0.0,0.0,85,0.00,CLR,,0.01,WeatherDisplay:10.37,2013-02-02 07:19:00,
2013-02-01 23:24:00,45.5,41.3,30.23,NW,323,1.0,1.0,85,0.00,CLR,,0.01,WeatherDisplay:10.37,2013-02-02 07:24:00,
2013-02-01 23:29:00,43.9,39.4,30.23,NNW,336,2.3,2.3,84,0.00,CLR,,0.01,WeatherDisplay:10.37,2013-02-02 07:29:00,
2013-02-01 23:34:00,43.5,39.9,30.23,NNW,345,0.0,0.0,87,0.00,CLR,,0.01,WeatherDisplay:10.37,2013-02-02 07:34:00,
2013-02-01 23:39:00,42.9,39.6,30.23,NNW,327,2.3,2.3,88,0.00,CLR,,0.01,WeatherDisplay:10.37,2013-02-02 07:39:00,
2013-02-01 23:44:00,42.9,39.9,30.23,NNW,330,2.3,2.3,89,0.00,CLR,,0.01,WeatherDisplay:10.37,2013-02-02 07:44:00,
2013-02-01 23:49:00,42.8,39.8,30.23,NNW,334,2.3,2.3,89,0.00,CLR,,0.01,WeatherDisplay:10.37,2013-02-02 07:49:00,
2013-02-01 23:54:00,42.9,40.2,30.23,NW,314,2.3,2.3,90,0.00,CLR,,0.01,WeatherDisplay:10.37,2013-02-02 07:54:00,
2013-02-01 23:59:00,43.9,41.2,30.23,NNW,330,2.3,2.3,90,0.00,RA,,0.00,WeatherDisplay:10.37,2013-02-02 07:59:00,